Regional Weather Roundup
Issued by NWS San Diego, CA

Home | Current Version | Previous Version | Text Only | Print | Product List | Glossary On
Versions: 1 2 3 4 5 6 7 8 9 10 11 12 13 14 15 16 17 18 19 20 21 22 23 24 25 26 27 28
000
ASUS46 KSGX 250911
RWRSGX

SAN DIEGO HOURLY WEATHER ROUNDUP
NATIONAL WEATHER SERVICE SAN DIEGO CA
200 AM PDT SAT MAR 25 2017

NOTE: "FAIR" INDICATES FEW OR NO CLOUDS BELOW 12,000 FEET WITH NO
SIGNIFICANT WEATHER AND/OR OBSTRUCTIONS TO VISIBILITY.

CAZ042-043-060-061-PZZ750-775-251000-

GREATER SAN DIEGO AREA

CITY           SKY/WX    TMP DP  RH WIND       PRES   REMARKS
SAN DIEGO AP   CLOUDY    59  51  75 CALM      30.18F
NATIONAL CITY    N/A     57  52  83 CALM      30.17F
CHULA VISTA      N/A     54  50  87 CALM      30.09F
IMPERIAL BEACH MOCLDY    55  50  83 E5        30.17F
BROWN FIELD    MOCLDY    52  48  86 NE5       30.16F
MIRAMAR MCAS   CLOUDY    55  50  83 E7        30.16F
MONTGOMERY FLD CLOUDY    54  50  86 NE3       30.16F

$$

NORTH SAN DIEGO COUNTY

CITY           SKY/WX    TMP DP  RH WIND       PRES   REMARKS
CAMP PENDLETON CLOUDY    51  49  92 N3        30.16F
OCEANSIDE AP   CLOUDY    52  49  89 CALM      30.16F
OCEANSIDE HBR    N/A     53  50  91 E5        30.18F
VISTA            N/A     54  49  84 CALM      30.15F
CARLSBAD       CLOUDY    56  51  84 CALM      30.15F
DEL MAR          N/A     55  53  93 CALM      30.18F
LA JOLLA SCRIP   N/A     57  53  87 N1        30.15F
FALLBROOK        N/A     52  51  97 CALM      30.15F
ESCONDIDO        N/A     54  49  83 CALM      30.18F
SAN MARCOS       N/A     55  50  82 CALM      30.17F
POWAY            N/A     51  46  84 CALM      30.19F

$$

EAST SAN DIEGO COUNTY

CITY           SKY/WX    TMP DP  RH WIND       PRES   REMARKS
RAMONA         CLOUDY    44  44 100 CALM      30.16F
SANTEE LAKES     N/A     51  48  88 CALM      30.17F
LA MESA          N/A     54  50  86 CALM      30.10F
JAMUL            N/A     47  45  91 CALM      30.17F
DESCANSO N       N/A     40  38  89 NE3       30.12F
CAMPO            N/A     40  39  97 NE3       30.13F

$$

ORANGE COUNTY AND THE LOS ANGELES BASIN

CITY           SKY/WX    TMP DP  RH WIND       PRES   REMARKS
JOHN WAYNE AP  CLOUDY    58  53  84 NE3       30.15F
LAKE FOREST FR   N/A     51  44  74 CALM      30.05F
HUNTINGTON BCH   N/A     56  53  89 NE3       30.15F
LOS ALAMITOS   FAIR      55  52  89 E5        30.14F
FULLERTON      CLOUDY    58  51  78 NE5       30.14F
LONG BEACH     CLOUDY    59  51  75 CALM      30.15F
L.A. AP        CLOUDY    58  52  80 NE9       30.13F
L.A. DOWNTOWN  CLOUDY    59  52  77 VRB6      30.12F

$$

THE INLAND EMPIRE

CITY           SKY/WX    TMP DP  RH WIND       PRES   REMARKS
CORONA         CLOUDY    51  47  86 CALM      30.17F
CHINO          CLOUDY    55  46  71 CALM      30.17F
ONTARIO        CLOUDY    53  45  74 CALM      30.15F
SAN BERNARDINO FAIR      55  46  69 CALM      30.17S
RIVERSIDE AP   CLOUDY    54  47  77 CALM      30.17F
MORENO VALLEY    N/A     51  49  92 CALM      28.28S
MARCH ARB      CLOUDY    47  47 100 NW6       30.16S
HORSETHIEF CYN   N/A     50  42  73 CALM      30.18S
PERRIS           N/A     52  48  86 CALM      30.18F
HEMET EAST       N/A     51  42  71 CALM      30.20F
FRENCH VALLEY  FAIR      50  45  81 CALM      30.16F
TEMECULA         N/A     53  49  85 SE1       30.22F

$$

SAN BERNARDINO AND RIVERSIDE COUNTY MOUNTAINS

CITY           SKY/WX    TMP DP  RH WIND       PRES   REMARKS
BIG BEAR AP    CLOUDY    41  32  70 W5G16     30.17F
ANGELUS OAKS     N/A     42  34  74 CALM      30.06F
PINE COVE        N/A     43  30  59 N5        30.08F

$$

SOUTHERN DESERT INCLUDING THE COACHELLA VALLEY

CITY           SKY/WX    TMP DP  RH WIND       PRES   REMARKS
PALM SPRINGS   CLOUDY    66  44  45 CALM      30.04F
THERMAL        CLOUDY    69  43  38 NW9       30.00F
BLYTHE         MOCLDY    64  35  34 CALM      30.01F
IMPERIAL AP    MOCLDY    63  41  44 W5        30.01F
EL CENTRO NAS  MOCLDY    65  37  35 W5        30.03F
YUMA AZ        CLEAR     64  42  44 CALM      30.01
MEXICALI         N/A    N/A N/A N/A MISG        N/A

$$

UPPER DESERT

CITY           SKY/WX    TMP DP  RH WIND       PRES   REMARKS
VICTORVILLE AP CLOUDY    52  41  66 SW5       30.12S
HESPERIA         N/A     53  41  63 SW15      30.20F
PALMDALE       LGT RAIN  53  43  68 SW17      30.12F
LANCASTER      CLOUDY    52  44  74 W14       30.13F
EDWARDS AFB    CLOUDY    53  30  41 SW15      30.10S
DAGGETT        CLOUDY    58  39  49 W12       30.07F
29 PALMS N     CLOUDY    60  38  43 CALM      30.11F
NEEDLES        MOCLDY    67  28  23 W5        30.00F

$$

REGIONAL REPORTS

CITY           SKY/WX    TMP DP  RH WIND       PRES   REMARKS
SANTA BARBARA  PTCLDY    56  50  80 SW3       30.13F
SANDBERG       CLOUDY    46  37  71 NW8       30.16F
LAS VEGAS NV   CLOUDY    66  28  24 S7        29.97F
PHOENIX AZ     PTCLDY    61  39  44 E7        30.04F
TIJUANA        PTCLDY    54  45  71 CALM      30.20S
ENSENADA NW      N/A     55  32  41 CALM      30.14F

$$

OFFSHORE ISLANDS

CITY           SKY/WX    TMP DP  RH WIND       PRES   REMARKS
CATALINA ARPT  CLOUDY    51  49  92 NE9       30.14F
SAN NICOLAS IS CLEAR    N/A N/A N/A W20       30.17F

$$

MARINE AND OFFSHORE BUOY REPORTS

STATION/POSITION SKY/WX   TEMP    WIND        PRES    VSBY  SWELL
                          AIR SEA DIR/SP/G                  HT/PER/DIR
                          (F)     (DEG/KT/KT) (MB)    (MI)  (FT/S/D)
TANNER BANKS               59 59  290/ 12/ 16 1021.8R         5/320/15
S CLEMENTE BASIN           58 60  340/  8/ 10 1021.3F         3/280/14
SAN NICOLAS IS.               57                N/A           5/290/11
SO. S. ROSA ISLA           57 57  280/ 10/ 12 1021.3F         7/300/11
W. S. BARBARA CH           57 57  320/  6/  8 1021.3F        10/290/10
M. S. BARBARA CH                                N/A           5/270/ 8
S. MONICA BASIN            58 59  320/ 10/ 12 1021.0R         3/240/13
S PEDRO CHANNEL               60                N/A           2/250/14
CMP PENDLETON NS              60                N/A           2/210/14
OCEANSIDE OFFSHR              61                N/A           2/190/14
TORREY PINES OTR              62                N/A           2/220/14
POINT LOMA SOUTH              62                N/A           3/210/15

$$





USA.gov is the U.S. government's official web portal to all federal, state and local government web resources and services.